[[{"header":{"parameterUnit":"m.s-1","parameterCategory":1,"la1":30.2991,"la2":30.254,"lo1":-89.0895,"lo2":-89.0444,"dy":0.0017,"dx":0.0017,"nx":28,"ny":28,"refTime":"2024-07-23T03:00:00:Z","depth":0,"parameterNumber":2,"parameterNumberName":"U-component_of_WINDS"},"data":[0,0,0,0,0,0,0,0,0,0,0,0,0,0,0,0,0,0,0,0,0,0,0,0,0,0,0,0,0,0,0,0,0,0,0,0,0,0,0,0,0,0,0,0,0,0,0,0,0,0,0,0,0,0,0,0,0,0,0.798,0.798,0,0.802,0.802,0.802,0.8041,0.8041,0.8041,0.8041,0.808,0.8081,0.8082,0,0,0,0,0,0,0,0,0,0,0,0,0,0.7917,0.7918,0.7979,0.798,0.798,0.802,0.802,0.8021,0.8041,0.8041,0.8041,0.8041,0.808,0.8081,0.8082,0,0,0,0,0,0,0,0,0,0,0,0,0,0.7949,0.7918,0.7979,0.7995,0.7997,0.8019,0.802,0.8021,0.8041,0.8041,0.8041,0.8041,0.8079,0.8081,0.8082,0.8091,0,0,0.8087,0.8088,0,0,0,0,0,0,0,0,0.7947,0.7951,0.7992,0.7994,0.7996,0.8025,0.8012,0.8044,0.8041,0.8024,0.8041,0.8041,0.8062,0.8065,0.8072,0.8093,0.8095,0.8087,0.8088,0.8089,0.8089,0,0,0,0,0,0,0,0.7945,0.795,0.7995,0.7993,0.7995,0.7999,0.8004,0.8018,0.8042,0.8026,0.8027,0.8032,0.8063,0.807,0.8073,0.8095,0.8087,0.8088,0.8089,0.809,0.8123,0.8123,0,0,0,0,0,0,0.7941,0.7948,0.7994,0.7996,0.7971,0.8,0.8006,0.8016,0.8042,0.8046,0.8032,0.8033,0.8068,0.8071,0.8074,0.8085,0.8089,0.809,0.8091,0.8123,0.8123,0.8123,0,0,0,0,0,0,0.7939,0.7945,0.7992,0.7973,0.7979,0.8001,0.8013,0.8017,0.8025,0.8047,0.8051,0.8036,0.8068,0.8072,0.8086,0.8087,0.8091,0.8092,0.8123,0.8123,0.8123,0.8108,0,0,0,0,0,0,0.7937,0.7944,0.7949,0.7973,0.798,0.8005,0.8013,0.8017,0.8027,0.8029,0.8051,0.8055,0.8068,0.8084,0.8088,0.8089,0.8093,0.8123,0.8123,0.8123,0.8108,0.8107,0.8106,0,0,0,0,0,0.7935,0.7943,0.7949,0.7954,0.7986,0.8005,0.8009,0.8025,0.8027,0.8031,0.8045,0.8054,0.8086,0.8085,0.809,0.8092,0.8123,0.8123,0.8123,0.8109,0.8107,0.8106,0,0,0,0,0,0,0.7918,0.7946,0.7953,0.7969,0.7984,0.8008,0.8014,0.8023,0.8037,0.8038,0.8056,0.8061,0.8073,0.8084,0.8082,0.81,0.8105,0.8106,0.8093,0.8092,0.8091,0.8088,0.8095,0,0,0,0,0,0.7916,0.793,0.7953,0.7965,0.7972,0.7992,0.8,0.8011,0.8027,0.8034,0.8049,0.8063,0.8076,0.8085,0.8098,0.811,0.8114,0.8113,0.8112,0.8111,0.8111,0.8116,0.8116,0.8123,0.8123,0.8123,0,0,0.7912,0.7929,0.7937,0.7962,0.7975,0.7987,0.7997,0.801,0.8019,0.8035,0.805,0.8061,0.8078,0.8091,0.8097,0.81,0.811,0.8111,0.811,0.8111,0.8116,0.8116,0.8115,0.8123,0.8123,0.8123,0,0,0.7912,0.7927,0.7937,0.795,0.7969,0.7982,0.7984,0.8006,0.8014,0.8029,0.8041,0.8051,0.8074,0.8085,0.8094,0.8095,0.8104,0.8099,0.8094,0.8099,0.8098,0.8098,0.8097,0.8097,0.81,0.81,0.81,0,0.7905,0.7925,0.7941,0.7953,0.7963,0.7978,0.7988,0.7999,0.8022,0.8028,0.8031,0.8059,0.8072,0.8086,0.8086,0.8093,0.8095,0.8097,0.8097,0.8097,0.8097,0.8096,0.8096,0.8099,0.8099,0.8099,0.8099,0,0.7914,0.7927,0.7933,0.7955,0.7965,0.7976,0.7993,0.8001,0.801,0.8022,0.8035,0.8051,0.8067,0.8071,0.8081,0.8087,0.8088,0.8094,0.8099,0.8095,0.8095,0.8095,0.8098,0.8098,0.8098,0.8098,0,0,0.7905,0.7934,0.7936,0.7945,0.7967,0.7977,0.7988,0.8004,0.801,0.8024,0.8033,0.8051,0.8056,0.8066,0.8076,0.808,0.8078,0.8085,0.8086,0.8083,0.8084,0.8079,0.8079,0.8084,0.8084,0.8084,0.8082,0,0.7907,0.7928,0.7942,0.7956,0.7968,0.7981,0.799,0.8004,0.8014,0.8025,0.8036,0.8048,0.8055,0.806,0.8065,0.8077,0.8079,0.8078,0.8091,0.8091,0.8086,0.8079,0.8074,0.8072,0.8083,0.8083,0.8083,0,0.7913,0.7926,0.7942,0.7961,0.7966,0.7974,0.7989,0.7999,0.8013,0.8021,0.8031,0.8041,0.8051,0.8055,0.8069,0.8068,0.8074,0.808,0.808,0.8082,0.8086,0.808,0.8072,0.8071,0.8083,0.8083,0.8083,0,0.7903,0.7926,0.7938,0.7945,0.7967,0.7972,0.7982,0.7996,0.8004,0.8017,0.8022,0.8035,0.8042,0.8052,0.8065,0.8067,0.8076,0.8082,0.8082,0.8081,0.8083,0.8083,0.8076,0.8088,0.8088,0.8088,0.8088,0,0.7904,0.7913,0.7934,0.7941,0.795,0.7965,0.7974,0.7984,0.7997,0.8005,0.8018,0.8025,0.8042,0.8051,0.8061,0.807,0.8073,0.8078,0.8081,0.8077,0.8076,0.8081,0.8081,0.8088,0.8088,0.8088,0.8088,0,0.7896,0.791,0.7924,0.7943,0.7948,0.7954,0.797,0.7977,0.7987,0.7998,0.8001,0.8017,0.8028,0.8042,0.8058,0.8064,0.8072,0.8076,0.8067,0.8068,0.8067,0.8066,0.8062,0.8062,0.8074,0.8074,0.8074,0,0.7895,0.7902,0.7921,0.7928,0.7937,0.7948,0.7956,0.797,0.7978,0.7994,0.7998,0.801,0.802,0.8037,0.805,0.8061,0.8066,0.8063,0.8067,0.8063,0.8064,0.8064,0.8064,0.8062,0.8062,0.8062,0.8062,0,0.7892,0.7898,0.7909,0.7922,0.7931,0.7943,0.7954,0.7958,0.7975,0.7983,0.7994,0.8002,0.8017,0.8028,0.8041,0.805,0.8058,0.806,0.806,0.8056,0.8051,0.8053,0.8063,0.806,0.806,0.806,0.806,0.8061,0.7887,0.7893,0.7907,0.7919,0.7928,0.7938,0.7945,0.7956,0.7966,0.798,0.7987,0.7998,0.8011,0.8029,0.8036,0.8044,0.8048,0.8048,0.8048,0.8048,0.8047,0.8049,0.8047,0.8047,0.8047,0.8047,0.8047,0,0.7883,0.7893,0.7903,0.7918,0.7927,0.7934,0.7946,0.7953,0.7962,0.7973,0.7983,0.7995,0.8005,0.8018,0.8029,0.8033,0.8037,0.8035,0.8035,0.8036,0.8044,0.8042,0.8032,0.8032,0.8032,0.8032,0.8032,0.8032,0.7883,0.7893,0.79,0.7914,0.7924,0.7934,0.7941,0.7949,0.7958,0.7971,0.798,0.7988,0.7999,0.8011,0.802,0.8024,0.8027,0.8024,0.8028,0.8035,0.8036,0.8037,0.8036,0.8025,0.8025,0.802,0.802,0.802]},{"header":{"parameterUnit":"m.s-1","parameterCategory":1,"la1":30.2991,"la2":30.254,"lo1":-89.0895,"lo2":-89.0444,"dy":0.0017,"dx":0.0017,"nx":28,"ny":28,"refTime":"2024-07-23T03:00:00:Z","depth":0,"parameterNumber":3,"parameterNumberName":"V-component_of_WINDS"},"data":[0,0,0,0,0,0,0,0,0,0,0,0,0,0,0,0,0,0,0,0,0,0,0,0,0,0,0,0,0,0,0,0,0,0,0,0,0,0,0,0,0,0,0,0,0,0,0,0,0,0,0,0,0,0,0,0,0,0,3.4947,3.4948,0,3.4991,3.4992,3.4992,3.4933,3.4931,3.4929,3.4927,3.4969,3.4972,3.4975,0,0,0,0,0,0,0,0,0,0,0,0,0,3.4808,3.4811,3.4947,3.4948,3.4948,3.4991,3.4992,3.4992,3.4934,3.4931,3.4929,3.4926,3.4968,3.4972,3.4976,0,0,0,0,0,0,0,0,0,0,0,0,0,3.4862,3.4812,3.4947,3.4924,3.4923,3.4991,3.4992,3.4992,3.4934,3.4931,3.4928,3.4925,3.4967,3.4972,3.4976,3.5068,0,0,3.499,3.4992,0,0,0,0,0,0,0,0,3.4859,3.4867,3.4927,3.4926,3.4924,3.4954,3.4958,3.5018,3.4935,3.493,3.4927,3.4923,3.4966,3.4971,3.4986,3.507,3.5072,3.4991,3.4994,3.4996,3.4997,0,0,0,0,0,0,0,3.4855,3.4865,3.4964,3.4928,3.4926,3.491,3.4915,3.4969,3.4965,3.493,3.4926,3.4932,3.4965,3.4982,3.4987,3.5072,3.4991,3.4995,3.4998,3.4999,3.5231,3.5234,0,0,0,0,0,0,3.4855,3.4862,3.4963,3.4966,3.4883,3.4916,3.492,3.4947,3.4965,3.4964,3.4935,3.4929,3.4975,3.4981,3.4988,3.5094,3.4995,3.5,3.5002,3.5227,3.5232,3.5235,0,0,0,0,0,0,3.4852,3.4865,3.4961,3.4913,3.4924,3.4921,3.4952,3.495,3.4966,3.4968,3.4967,3.4953,3.4973,3.4981,3.5048,3.5095,3.5002,3.5006,3.5223,3.5229,3.5233,3.531,0,0,0,0,0,0,3.4848,3.4864,3.49,3.4914,3.4927,3.5022,3.4955,3.4953,3.4975,3.4968,3.4985,3.4984,3.4971,3.5041,3.5053,3.51,3.501,3.5219,3.5226,3.5232,3.5303,3.5317,3.5329,0,0,0,0,0,3.4844,3.492,3.4902,3.4915,3.4972,3.5025,3.5032,3.5017,3.4979,3.5014,3.5015,3.4984,3.5089,3.5049,3.5061,3.511,3.5216,3.5224,3.5231,3.5297,3.5314,3.5328,0,0,0,0,0,0,3.491,3.4921,3.4902,3.4985,3.5005,3.5015,3.5059,3.5035,3.5066,3.5058,3.5036,3.504,3.5111,3.5117,3.5073,3.5198,3.5146,3.5156,3.5192,3.5208,3.522,3.5217,3.5014,0,0,0,0,0,3.4935,3.4979,3.4985,3.5058,3.5069,3.5063,3.5085,3.5071,3.509,3.5098,3.5104,3.5123,3.5159,3.5184,3.5218,3.5304,3.5305,3.5344,3.5356,3.5367,3.5376,3.5419,3.5435,3.526,3.526,3.526,0,0,3.4986,3.4997,3.5026,3.5071,3.5085,3.5129,3.507,3.5119,3.5151,3.5105,3.5168,3.5173,3.5192,3.5269,3.5302,3.5276,3.5424,3.5377,3.5385,3.5388,3.5428,3.5445,3.546,3.5265,3.5264,3.5263,0,0,3.51,3.5115,3.5175,3.519,3.5211,3.5207,3.5221,3.5235,3.5237,3.53,3.5266,3.5303,3.5367,3.5382,3.5398,3.5516,3.5488,3.5528,3.5594,3.5637,3.565,3.5662,3.5703,3.5718,3.5537,3.5537,3.5537,0,3.5161,3.5227,3.5209,3.5261,3.5281,3.5242,3.5302,3.5317,3.5348,3.5362,3.5333,3.5411,3.5422,3.5499,3.5528,3.5543,3.5557,3.5525,3.565,3.5662,3.5673,3.5711,3.5726,3.5542,3.5541,3.5541,3.554,0,3.5298,3.5344,3.5391,3.5422,3.5447,3.5503,3.5493,3.552,3.5504,3.5501,3.5565,3.5576,3.561,3.5628,3.5613,3.5703,3.5686,3.5654,3.56,3.5695,3.573,3.5744,3.5548,3.5547,3.5545,3.5544,0,0,3.5457,3.5477,3.5494,3.5507,3.5527,3.5561,3.5614,3.5649,3.5671,3.5694,3.5736,3.5791,3.5761,3.5779,3.5765,3.5802,3.5892,3.5765,3.5765,3.5787,3.599,3.6013,3.603,3.5874,3.5877,3.5879,3.5988,0,3.557,3.5662,3.5647,3.5736,3.5776,3.5739,3.5785,3.5801,3.58,3.5834,3.5832,3.5871,3.5829,3.5839,3.5875,3.5874,3.5933,3.5866,3.5911,3.5913,3.5906,3.6049,3.6074,3.6176,3.6002,3.6004,3.6006,0,3.5714,3.5742,3.5835,3.5846,3.5863,3.5904,3.5933,3.5966,3.5983,3.598,3.5999,3.5978,3.6028,3.5975,3.6043,3.5998,3.6016,3.6018,3.6022,3.6024,3.5964,3.6054,3.6208,3.6223,3.6028,3.6026,3.6024,0,3.5818,3.5878,3.5941,3.5953,3.5969,3.5998,3.6006,3.602,3.6041,3.6066,3.6079,3.611,3.6126,3.615,3.6136,3.6099,3.6206,3.6152,3.6203,3.6204,3.6226,3.6225,3.6385,3.6241,3.6241,3.624,3.624,0,3.5944,3.6002,3.5987,3.6026,3.6088,3.607,3.6132,3.6135,3.6148,3.6185,3.6155,3.619,3.6171,3.6204,3.6194,3.625,3.6259,3.6256,3.6252,3.6258,3.6258,3.6268,3.626,3.6244,3.6243,3.6243,3.6242,0,3.607,3.6063,3.6129,3.6138,3.6141,3.6187,3.6194,3.6229,3.6225,3.6272,3.6282,3.6276,3.6314,3.6303,3.6343,3.6336,3.6408,3.6396,3.6402,3.6399,3.6449,3.6444,3.662,3.6641,3.6485,3.6487,3.6488,0,3.6151,3.6195,3.6208,3.6231,3.6241,3.6279,3.63,3.6283,3.6305,3.6327,3.6359,3.6394,3.642,3.6482,3.648,3.651,3.6498,3.6557,3.6502,3.6506,3.6496,3.6493,3.6496,3.6568,3.657,3.6571,3.6572,0,3.6295,3.6288,3.632,3.6351,3.6376,3.6399,3.6419,3.644,3.6424,3.6451,3.6489,3.651,3.655,3.6585,3.6612,3.6618,3.6592,3.659,3.6603,3.6608,3.6609,3.6607,3.643,3.6586,3.6584,3.6583,3.6582,3.6582,3.6399,3.6435,3.645,3.6485,3.6499,3.6518,3.655,3.6551,3.6582,3.6614,3.6602,3.6645,3.6659,3.6693,3.6703,3.6735,3.6712,3.6732,3.6736,3.6741,3.6746,3.6606,3.674,3.674,3.6739,3.6739,3.6739,0,3.6539,3.6546,3.658,3.6608,3.6636,3.661,3.663,3.6655,3.6693,3.6709,3.6735,3.6778,3.681,3.6811,3.6841,3.6867,3.6856,3.6875,3.6872,3.6874,3.6766,3.6751,3.6884,3.6884,3.6884,3.6884,3.6884,3.6884,3.6615,3.6674,3.6669,3.6733,3.674,3.6782,3.6795,3.6812,3.6824,3.6873,3.69,3.69,3.6909,3.6939,3.6968,3.6967,3.6978,3.7002,3.6997,3.6896,3.6882,3.6868,3.6853,3.7005,3.7006,3.7101,3.7102,3.7103]}]]